weather.gov     
National Weather Service

Regional Weather Roundup
NWS Homepage
This page is being discontinued on March 12, 2014.
The same data is available at this site. Please update your bookmarks.
Thank you, and we apologize for the inconvenience.
Please send an email to SR-SRH.Webmaster@noaa.gov with any concerns.


Current Version
Previous Version:    01  02  03  04  05  06  07  08  09  10  11  12  13  14  15  16  17  18  19  20  21  22  23  24  25  26  
[Printable]
648
ASUS45 KGGW 281415
RWRGGW
HOURLY WEATHER ROUNDUP FOR NORTHEAST MONTANA
NATIONAL WEATHER SERVICE GLASGOW MONTANA
800 AM MDT MON JUL 28 2014

NOTE: "FAIR" INDICATES FEW OR NO CLOUDS BELOW 12,000 FEET WITH NO
SIGNIFICANT WEATHER AND/OR OBSTRUCTIONS TO VISISBILITY.

NORTHEAST MONTANA


CITY           SKY/WX    TMP DP  RH WIND       PRES   REMARKS
GLASGOW        SUNNY     63  52  67 E10       30.28S
PLENTYWOOD       N/A     62  55  77 SE6         N/A
WOLF POINT     SUNNY     61  52  72 E6        30.30S
JORDAN           N/A     63  47  55 CALM      30.28S
WINNETT          N/A     60  43  53 S2          N/A
SIDNEY         SUNNY     61  52  72 CALM      30.33S
GLENDIVE       SUNNY     61  52  72 S3        30.33S
MALTA            N/A     60  56  86 NE5         N/A

FORT PECK REPORTS


CITY           SKY/WX    TMP DP  RH WIND       PRES   REMARKS
FORT PECK        N/A     68  54  60 E5          N/A

SOUTHEAST MONTANA


CITY           SKY/WX    TMP DP  RH WIND       PRES   REMARKS
BILLINGS       MOSUNNY   65  43  44 N3        30.29R
MILES CITY     SUNNY     66  54  65 SE7       30.30R
BAKER          SUNNY     61  53  75 SE8       30.34S
LIVINGSTON     SUNNY     59  39  47 NW3       30.34R

CENTRAL MONTANA


CITY           SKY/WX    TMP DP  RH WIND       PRES   REMARKS
HAVRE          SUNNY     64  48  56 E6        30.24R
LEWISTOWN      SUNNY     68  44  42 SE12      30.30R
GREAT FALLS    CLOUDY    62  43  49 CALM      30.25R
CUT BANK       PTSUNNY   59  48  67 CALM      30.27R
HELENA         PTSUNNY   62  41  46 CALM      30.29R
BUTTE          PTSUNNY   55  37  50 CALM      30.35R
BOZEMAN        PTSUNNY   62  43  49 CALM      30.29S

WESTERN MONTANA


CITY           SKY/WX    TMP DP  RH WIND       PRES   REMARKS
MISSOULA       PTSUNNY   61  45  55 S6        30.22R
KALISPELL      NOT AVBL

NORTH DAKOTA


CITY           SKY/WX    TMP DP  RH WIND       PRES   REMARKS
WILLISTON      SUNNY     61  53  75 SE3       30.33R
DICKINSON      SUNNY     60  53  77 S10       30.33S
MINOT          MOSUNNY   62  53  72 VRB3      30.33S
BISMARCK       SUNNY     59  51  75 CALM      30.35S

SOUTHERN SASKATCHEWAN


CITY           SKY/WX    TMP DP  RH WIND       PRES   REMARKS
REGINA         MOSUNNY   61  55  82 SE8       30.31S
MOOSE JAW      MOSUNNY   61  57  88 SE3       30.30R
ESTEVAN        MOSUNNY   63  57  82 SW2       30.34S
SWIFT CURRENT  SUNNY     63  57  82 SW6       30.29S





U.S. Dept. of Commerce
NOAA National Weather Service
1325 East West Highway
Silver Spring, MD 20910
E-mail: w-nws.webmaster@noaa.gov
Page last modified: May 16, 2007
NATIONAL WEATHER SERVICE: for Safety, for Work, for Fun - FOR LIFE